Home > Weather > Eilat > Past weeks

Flag for Israel Past Weather in Eilat, Israel — Yesterday and Last 2 Weeks

Now
88 °F

Sunny.


Feels Like: 85 °F
Forecast: 77 / 101 °F
Wind: 8 mph from Northeast

Location: Eilat

Current Time: Jul 27, 2016 at 8:59:23 AM

Latest Report: Jul 27, 2016 at 7:50 AM


Visibility: 10 mi

Pressure: 29.71 "Hg

Humidity: 25%

Dew Point: 48 °F

Location of EilatLocation

Past Weather in Eilat — Graph

°F

Eilat Temperature Yesterday

Maximum temperature yesterday: 108 °F (at 6:50 PM)
Minimum temperature yesterday: 82 °F (at 5:50 AM)
Average temperature yesterday: 97 °F

High & Low Weather Summary for the Past Weeks

 TemperatureHumidityPressure
High109 °F (Jul 13, 3:50 PM)58% (Jul 18, 5:50 AM)29.83 "Hg (Jul 18, 5:50 AM)
Low79 °F (Jul 24, 5:50 AM)8% (Jul 16, 6:50 PM)29.50 "Hg (Jul 19, 4:50 PM)
Average96 °F27%29.67 "Hg
* Reported Jul 12 7:50 AM — Jul 27 7:50 AM, Eilat, Weather by CustomWeather, © 2016

Note: Actual official high and low records may vary slightly from our data, if they occured in-between our weather recording intervals... More about our weather records

Advertising

Eilat Weather History for the Previous 24 Hours

Scroll right to see more
 ConditionsComfort  
Time TempWeatherWind HumidityBarometerVisibility
7:50 AM
Wed, Jul 27
88 °FSunny.8 mph25%29.71 "Hg10 mi
6:50 AM84 °FClear.8 mph29%29.71 "Hg10 mi
5:50 AM84 °FClear.6 mph29%29.71 "Hg10 mi
9:50 PM
Tue, Jul 26
99 °FClear.13 mph21%29.65 "Hg10 mi
8:50 PM102 °FClear.9 mph12%29.62 "Hg10 mi
7:50 PM104 °FSunny.8 mph9%29.59 "Hg10 mi
6:50 PM108 °FSunny.8 mph9%29.59 "Hg10 mi
5:50 PM100 °FSunny.7 mph22%29.59 "Hg10 mi
4:50 PM100 °FSunny.9 mph21%29.59 "Hg10 mi
3:50 PM102 °FSunny.7 mph16%29.62 "Hg10 mi
2:50 PM104 °FSunny.10 mph17%29.62 "Hg10 mi
1:50 PM104 °FSunny.10 mph12%29.65 "Hg10 mi
12:50 PM104 °FSunny.8 mph12%29.68 "Hg10 mi
11:50 AM100 °FPassing clouds.8 mph14%29.68 "HgN/A
10:50 AM95 °FPassing clouds.7 mph23%29.71 "HgN/A
9:50 AM91 °FSunny.10 mph24%29.71 "Hg10 mi
8:50 AM90 °FSunny.9 mph27%29.71 "Hg10 mi
Weather by CustomWeather, © 2016

See weather overviewHow to use our weather pages